Weather in Kniahynynok

Ukraine / Volyn Oblast     50°47′48″N   25°16′03″E
В апреле 2022 года жителям России запретили посещать сайт meteo.paraplan.net по решению Генеральной прокуратуры. Аудитория сайта уменьшилась в 10 раз. Владельцы сайта не видят смысла в поддержке погодного сервера в таких условиях. Сайт будет закрыт в октябре.
temp.,
°C
wind,
m/s
gust,
m/s
humid.,
%
clouds,
%
prec.,
mm/h
press.,
hPa
HPBL,
m
25 september, sun
sun2500:00+8w22826 0.0 101828
03:00+7sw22825 0.0 101827
06:00+6ssw228566 0.0 101727
09:00+9s2482100 0.0 1016138
12:00+12sw3469100 0.0 1016426
15:00+15wsw455984 0.0 10141015
18:00+14sw2369100 0.0 101360
21:00+12ssw3778100 0.0 1013171
26 september, mon
mon2600:00+11s3676100 0.0 1012172
03:00+11sw3784100 0.0 1011233
06:00+10ssw3692100 0.1 1010196
09:00+11ssw3796100 0.4 1010317
12:00+11s4791100 0.2 1010408
15:00+11s3692100 0.3 1009402
18:00+12s2591100 0.0 1008350
21:00+10ssw2396100 0.0 100855
27 september, tue
tue2700:00+9s2295100 0.0 100827
03:00+9sse229572 0.0 100622
06:00+9e2295100 0.0 100531
09:00+10se3694100 0.3 1004231
12:00+12se2391100 0.9 1003370
15:00+13e2385100 1.4 1002444
18:00+12ese249287 0.4 1001249
21:00+9ese119723 0.4 100211
28 september, wed
wed2800:00+10sse1196100 0.0 100119
03:00+10ssw229552 0.0 100128
06:00+10sw2595100 0.0 1001147
09:00+10wnw61192100 0.1 1002589
12:00+13w467229 0.0 1003845
15:00+15wsw56561 0.1 10031380
18:00+14sw356516 0.0 1003118
21:00+10s227596 0.0 100513
29 september, thu
thu2900:00+9sse35895 0.0 100587
03:00+9s478988 0.0 1006111
06:00+10sse3894100 0.0 1005164
09:00+11ssw2485100 0.0 1006138
12:00+12nw108099 0.1 100793
15:00+14nnw2377100 0.1 100789
18:00+12ne3485100 0.1 100787
21:00+12nne1188100 0.2 100811